THY838 LTBH-LTFM

Flight info

Callsign THY838
Flight time N/A
Altitude 21000
Route LTBH SID BIG UN604 INBET STAR LTFM
Aircraft B738/M-SDE/C

Departure

Time N/A
Airport Çanakkale Airport (LTBH)

Arrival

Time 2026-05-01 07:43
Airport İstanbul Airport (LTFM)
Time Latitude Longitude Altitude Speed Heading
2026-05-01 07:23 40.73250 27.36037 17795 ft 449 kts 52°
2026-05-01 07:23 40.75924 27.43403 16947 ft 444 kts 72°
2026-05-01 07:24 40.76726 27.47326 16521 ft 441 kts 77°
2026-05-01 07:24 40.77356 27.51254 16097 ft 437 kts 79°
2026-05-01 07:24 40.77933 27.55180 15680 ft 433 kts 79°
2026-05-01 07:24 40.78527 27.59065 15279 ft 430 kts 79°
2026-05-01 07:25 40.79122 27.62859 14884 ft 427 kts 78°
2026-05-01 07:25 40.79731 27.66687 14483 ft 424 kts 78°
2026-05-01 07:25 40.80339 27.70475 14083 ft 421 kts 78°
2026-05-01 07:25 40.80945 27.74235 13681 ft 416 kts 78°
2026-05-01 07:26 40.81560 27.77931 13280 ft 409 kts 77°
2026-05-01 07:26 40.82178 27.81560 12880 ft 402 kts 78°
2026-05-01 07:26 40.82778 27.85139 12455 ft 397 kts 78°
2026-05-01 07:26 40.83351 27.88594 11997 ft 374 kts 78°
2026-05-01 07:27 40.83882 27.91819 11550 ft 354 kts 78°
2026-05-01 07:27 40.84389 27.94917 11098 ft 338 kts 78°
2026-05-01 07:27 40.84872 27.97877 10647 ft 323 kts 78°
2026-05-01 07:27 40.85334 28.00712 10393 ft 306 kts 78°
2026-05-01 07:28 40.85770 28.03400 10232 ft 294 kts 78°
2026-05-01 07:28 40.86195 28.06022 10035 ft 291 kts 78°
2026-05-01 07:28 40.86615 28.08622 9823 ft 289 kts 78°
2026-05-01 07:28 40.87032 28.11206 9610 ft 286 kts 78°
2026-05-01 07:29 40.87445 28.13769 9397 ft 284 kts 78°
2026-05-01 07:29 40.87852 28.16304 9184 ft 281 kts 78°
2026-05-01 07:29 40.88251 28.18785 8974 ft 278 kts 78°
2026-05-01 07:29 40.88649 28.21270 8761 ft 275 kts 78°
2026-05-01 07:30 40.89043 28.23731 8548 ft 273 kts 78°
2026-05-01 07:30 40.89434 28.26180 8335 ft 271 kts 77°
2026-05-01 07:30 40.89821 28.28607 8122 ft 269 kts 77°
2026-05-01 07:30 40.90206 28.31025 7909 ft 268 kts 77°
2026-05-01 07:31 40.90589 28.33425 7696 ft 266 kts 77°
2026-05-01 07:31 40.91747 28.40488 7060 ft 261 kts 77°
2026-05-01 07:32 40.92488 28.45155 6635 ft 258 kts 77°
2026-05-01 07:32 40.92851 28.47468 6422 ft 256 kts 77°
2026-05-01 07:33 40.93567 28.52053 5997 ft 253 kts 76°
2026-05-01 07:33 40.93921 28.54330 5783 ft 252 kts 76°
2026-05-01 07:33 40.94613 28.58793 5359 ft 243 kts 76°
2026-05-01 07:34 40.94941 28.60915 5136 ft 227 kts 76°
2026-05-01 07:34 40.95537 28.64770 4683 ft 201 kts 75°
2026-05-01 07:34 40.95807 28.66514 4487 ft 189 kts 75°
2026-05-01 07:35 40.96063 28.68172 4284 ft 181 kts 75°
2026-05-01 07:35 40.96316 28.69808 4070 ft 181 kts 75°
2026-05-01 07:35 40.96569 28.71441 3993 ft 181 kts 75°
2026-05-01 07:35 40.96823 28.73081 4003 ft 185 kts 75°
2026-05-01 07:36 40.97181 28.74654 3971 ft 180 kts 53°
2026-05-01 07:36 40.98174 28.75503 3977 ft 169 kts 15°
2026-05-01 07:36 40.99324 28.75733 4012 ft 166 kts
2026-05-01 07:36 41.00463 28.75880 4000 ft 163 kts
2026-05-01 07:37 41.02721 28.76023 4003 ft 162 kts
2026-05-01 07:37 41.03846 28.76040 4005 ft 162 kts
2026-05-01 07:37 41.04977 28.76039 4005 ft 162 kts
2026-05-01 07:38 41.06087 28.76029 4004 ft 161 kts
2026-05-01 07:38 41.07186 28.76013 3979 ft 155 kts
2026-05-01 07:38 41.09307 28.75974 3616 ft 150 kts
2026-05-01 07:39 41.10337 28.75953 3430 ft 146 kts
2026-05-01 07:39 41.11341 28.75931 3233 ft 144 kts
2026-05-01 07:39 41.13315 28.75889 2854 ft 142 kts
2026-05-01 07:40 41.14301 28.75867 2667 ft 142 kts
2026-05-01 07:40 41.15297 28.75845 2483 ft 145 kts
2026-05-01 07:40 41.16296 28.75823 2284 ft 142 kts
2026-05-01 07:40 41.17281 28.75802 2094 ft 141 kts
2026-05-01 07:41 41.18254 28.75780 1908 ft 137 kts
2026-05-01 07:41 41.19194 28.75760 1723 ft 133 kts
2026-05-01 07:41 41.21008 28.75720 1380 ft 128 kts
2026-05-01 07:42 41.21897 28.75700 1219 ft 127 kts
2026-05-01 07:42 41.22760 28.75682 1049 ft 125 kts
2026-05-01 07:42 41.23625 28.75662 899 ft 123 kts
2026-05-01 07:42 41.24475 28.75644 781 ft 122 kts
2026-05-01 07:43 41.25327 28.75625 572 ft 122 kts
2026-05-01 07:43 41.26174 28.75606 399 ft 122 kts
2026-05-01 07:43 41.27465 28.75590 333 ft 24 kts 357°
2026-05-01 07:44 41.27622 28.75511 333 ft 2 kts 274°
2026-05-01 07:44 41.27625 28.75421 333 ft 17 kts 272°
2026-05-01 07:45 41.27620 28.75325 333 ft 0 kts 270°
2026-05-01 07:45 41.27620 28.75276 333 ft 1 kts 270°